User: anonymous   Login
Location: ?
(35.4996°N, 139.3166°E)
Time: 18:17:47
(UTC+00:00)
Language:

Spot 2 Rocket - Orbit

View from above orbital plane
View from above orbital plane
View from above satellite
View from above satellite

Ground track
Ground track

The orbit data is extracted from the following two-line orbital elements,

1 20443U 90005H   24171.45983793  .00000390  00000-0  14023-3 0  9995
2 20443  98.3933 236.9505 0009078 294.9558  65.0686 14.38971105802680
Epoch (UTC): 19 June 2024 11:02:09
Eccentricity: 0.0009078
inclination: 98.3933°
perigee height: 755 km
apogee height: 768 km
right ascension of ascending node: 236.9505°
argument of perigee: 294.9558°
revolutions per day: 14.38971105
mean anomaly at epoch: 65.0686°
orbit number at epoch: 80268

The dashed part of the orbit path shows where the satellite is in the earth's shadow,  

DLR